Theta_e
290 290 290 289 290 289 288 288 288 287 287 287 286 285 285 286 286 285 286 285 284 284
288 288 288 287 288 289 289 288 288 286 285 285 285 284 284 284 284 284 285 284 284 284
288 288 287 286 286 286 287 286 285 285 285 285 284 284 284 284 283 283 283 283 283 283
287 287 287 285 285 286 285 285 284 284 284 283 283 283 283 283 282 282 282 282 282 281
287 286 285 286 285 285 284 284 284 284 283 283 283 283 282 282 282 282 281 281 280 280
287 286 285 285 285 284 285 284 284 283 283 282 282 282 282 283 282 282 282 281 280 280
286 286 286 286 286 284 284 284 284 283 283 283 282 282 282 282 282 281 281 281 281 280
285 285 285 285 285 285 283 284 283 283 283 283 282 282 281 282 282 281 281 280 280 279
284 283 283 284 284 284 283 282 283 282 282 282 281 285 286 283 281 281 280 278 279 279
283 282 281 282 282 282 282 282 281 282 282 281 282 286 287 286 281 280 280 279 278 276
279 279 280 280 281 281 281 281 280 281 281 281 282 285 287 286 282 281 280 279 278 277
277 276 279 279 279 280 279 279 280 281 281 280 281 284 286 286 283 280 279 278 278 277
275 275 277 277 278 279 278 279 279 279 279 280 280 283 284 286 283 279 278 277 276 278
273 274 274 275 277 277 277 278 277 277 277 277 279 279 284 286 284 279 277 276 275 276
Wind_Speed
4 4 5 6 7 9 10 12 15 15 14 13 13 12 11 8 8 9 9 11 8 6
4 5 6 6 4 5 7 7 10 14 15 16 16 16 16 12 13 11 10 9 9 7
5 6 6 6 10 10 9 8 10 13 14 14 14 15 16 12 12 13 10 8 11 8
8 8 7 9 9 10 8 10 12 14 14 15 16 15 15 15 15 16 14 11 13 12
9 8 9 11 10 8 11 10 12 13 15 15 16 17 19 18 16 19 18 17 15 14
15 11 9 11 10 8 10 12 13 13 15 16 17 17 18 19 17 18 18 19 19 17
12 14 14 13 10 7 10 12 13 14 16 17 16 17 18 18 19 19 18 18 19 19
12 12 11 12 12 10 9 12 12 14 15 15 17 15 18 18 19 19 18 17 17 17
11 13 13 13 12 11 11 10 11 13 14 16 14 24 30 24 18 18 18 17 16 15
12 13 14 15 14 12 11 10 12 13 14 17 17 25 28 31 17 18 19 18 17 14
14 17 15 14 15 14 10 11 11 12 14 14 13 25 27 28 17 16 19 19 20 20
13 15 13 13 15 15 13 12 11 10 12 14 14 24 26 25 19 16 18 17 17 18
13 15 15 15 14 12 12 14 9 10 10 12 14 21 26 25 14 14 13 17 18 25
12 14 14 15 15 15 14 12 11 11 10 9 11 12 25 30 17 13 12 11 11 12
Wind_Direction
297 272 262 209 184 190 197 197 185 191 190 188 181 181 186 195 200 197 198 187 183 175
259 234 226 218 215 216 212 199 197 193 188 186 182 183 182 187 189 190 193 196 186 178
259 247 241 215 209 198 197 178 182 191 199 196 192 189 188 190 188 183 187 184 184 184
285 260 243 236 222 213 200 191 189 190 196 199 194 190 195 195 186 188 183 185 185 182
321 278 257 250 238 208 206 200 201 197 194 198 203 196 195 197 193 190 187 184 181 182
354 344 293 269 253 221 221 208 206 203 202 200 204 204 204 199 197 202 197 187 185 181
342 339 337 317 288 244 229 222 216 215 210 204 200 208 205 205 201 197 199 193 192 183
336 333 330 324 317 283 240 235 222 224 222 217 206 199 201 206 207 204 199 196 194 191
330 335 335 330 327 311 280 254 238 228 224 223 223 216 204 198 201 202 200 197 197 190
327 330 331 331 330 320 295 267 245 238 232 230 229 225 214 205 203 196 198 197 192 187
333 328 323 327 323 315 301 272 250 244 238 238 236 231 222 209 205 207 202 198 194 191
323 317 310 311 312 310 298 278 255 247 238 238 242 234 223 209 206 205 207 196 197 193
308 304 305 306 293 288 277 272 267 258 242 235 242 235 230 215 202 217 210 187 189 194
294 295 296 295 299 292 291 288 272 259 255 237 232 234 229 223 211 197 196 201 195 189